Find Starlink 30474

NORAD ID: 57897 Int'l Des: 2023-146 Owner: SPXS Country: US Constellation: starlink operational
LEOCIRCULAR

現在のビュー

3D地球を読み込み中...

About Starlink 30474

Starlink 30474 (NORAD 57897) is a starlink constellation satellite (v2 mini) launched Sep 20, 2023 by SPXS of US. It operates in LEO, CIRCULAR orbit with a mass of 730.00 kg.

Starlink 30474について

説明を読み込み中...

次回通過

Passes for default location (London). Set your location on the main map for personalized predictions.

高度履歴

Loading altitude history...

軌道要素

1 57897U 23146G 26171.19888973 .00000980 00000-0 45121-4 0 9996
2 57897 43.0021 95.2917 0001339 263.0453 97.0246 15.27581934152731
Epoch: Jun 20, 2026 • Age: 17 hours

現在のステータス

高度 493.9 km
速度 7.62 km/s
衛星直下点 -39.19°S, 99.46°E
打ち上げ日 Sep 20, 2023
運用期間 2.7 years
タイプ internet

技術仕様

分類 Payload
質量 730.00 kg
乾燥質量 700.00 kg
総質量 730.00 kg
長さ 0.30 m
直径 4.10 m
スパン 29.00 m
形状 Box + pan
製造者 SPXS
バスタイプ Starlink V2M
フェーズステータス In Orbit
所有者/国 SPXS/US

Most Searched